{"data":{"norad_id":60934,"intl_designator":"2024-155L","name":"STARLINK-11237 [DTC]","alt_names":[],"object_type":"PAYLOAD","status":"ACTIVE","operator":null,"country":"US","launch_date":"2024-08-31","launch_site_code":"AFWTR","launch_vehicle":null,"mission":null,"orbit_class":"UNKNOWN","rcs_meters":null,"size_class":null,"mass_kg":null,"dimensions":null,"purposes":["comms"],"wikipedia_slug":null,"has_3d_model":false,"image_url":null,"decayed_at":null,"tle_current":{"epoch":"2026-05-25T04:48:46.380384Z","epoch_age_seconds":53715,"freshness":"FRESH","line1":"1 60934U 24155L   26145.20053681  .00002524  00000+0  25692-4 0  9992","line2":"2 60934  53.1574 323.7586 0001286  88.0217 272.0948 15.69706935100437","mean_motion":15.69706935,"eccentricity":0.0001286,"inclination_deg":53.1574,"raan_deg":323.7586,"arg_perigee_deg":88.0217,"mean_anomaly_deg":272.0948,"bstar":2.5692e-5,"rev_number":10043,"period_min":91.736869341155,"perigee_km":358.8690308846,"apogee_km":360.60201169707,"semimajor_km":6737.8725212908,"source":"CELESTRAK","updated_at":"2026-05-25T13:38:19.319205Z"}}}